Home   Weather   Langenhagen   Past weeks

Flag for Germany Past Weather in Langenhagen, Lower Saxony, Germany — Yesterday and Last 2 Weeks

Now
37 °F

Sunny.


Feels Like: 37 °F
Forecast: 17 / 33 °F
Wind: 1 mph from North

Location: Hannover

Current Time: Jan 19, 2017 at 2:08:54 pm

Latest Report: Jan 19, 2017 at 1:20 pm


Visibility: 10 mi

Pressure: 30.66 "Hg

Humidity: 52%

Dew Point: 21 °F

Location of LangenhagenLocation

Past Weather in Langenhagen — Graph

°F

Langenhagen Temperature Yesterday

Maximum temperature yesterday: 30 °F (at 1:50 pm)
Minimum temperature yesterday: 23 °F (at 4:20 am)
Average temperature yesterday: 27 °F

High & Low Weather Summary for the Past Weeks

 TemperatureHumidityPressure
High43 °F (Jan 11, 3:20 pm)100% (Jan 6, 5:50 am)30.77 "Hg (Jan 6, 5:50 am)
Low12 °F (Jan 6, 5:20 am)51% (Jan 4, 9:50 pm)28.94 "Hg (Jan 13, 4:20 am)
Average31 °F85%30.14 "Hg
* Reported Jan 4 12:20 pm — Jan 19 12:50 pm, Langenhagen, Weather by CustomWeather, © 2017

Note: Actual official high and low records may vary slightly from our data, if they occured in-between our weather recording intervals... More about our weather records

Advertising

Langenhagen Weather History for the Previous 24 Hours

Scroll right to see more
 ConditionsComfort  
Time TempWeatherWind HumidityBarometerVisibility
12:50 pm
Thu, Jan 19
36 °FSunny.2 mph56%30.66 "Hg10 mi
12:20 pm36 °FSunny.1 mph56%30.66 "Hg10 mi
11:50 am34 °FSunny.2 mph65%30.66 "Hg10 mi
11:20 am32 °FSunny.5 mph75%30.66 "Hg10 mi
10:50 am28 °FSunny.5 mph74%30.69 "Hg10 mi
10:20 am28 °FSunny.5 mph74%30.69 "Hg10 mi
9:50 am28 °FSunny.2 mph74%30.69 "Hg10 mi
9:20 am28 °FSunny.3 mph74%30.69 "Hg10 mi
8:50 am27 °FSunny.2 mph80%30.69 "Hg10 mi
8:20 am27 °FPassing clouds.3 mph80%30.69 "HgN/A
7:50 am27 °FPassing clouds.3 mph80%30.66 "HgN/A
7:20 am27 °FPassing clouds.5 mph80%30.66 "HgN/A
6:50 am27 °FPassing clouds.5 mph80%30.66 "HgN/A
6:20 am27 °FPassing clouds.3 mph86%30.66 "HgN/A
5:50 am27 °FPassing clouds.3 mph86%30.66 "HgN/A
5:20 am27 °FPartly cloudy.3 mph80%30.69 "HgN/A
4:50 am27 °FPassing clouds.3 mph80%30.69 "HgN/A
4:20 am27 °FPartly cloudy.6 mph80%30.69 "HgN/A
3:50 am27 °FPassing clouds.5 mph86%30.69 "HgN/A
3:20 am28 °FPassing clouds.3 mph80%30.69 "HgN/A
2:50 am28 °FPassing clouds.3 mph80%30.69 "HgN/A
2:20 am27 °FClear.5 mph86%30.69 "Hg10 mi
1:50 am27 °FPassing clouds.3 mph86%30.69 "HgN/A
1:20 am27 °FClear.3 mph86%30.69 "Hg10 mi
12:50 am27 °FClear.3 mph86%30.69 "Hg10 mi
12:20 am28 °FClear.3 mph86%30.69 "Hg10 mi
11:50 pm
Wed, Jan 18
28 °FClear.3 mph80%30.69 "Hg10 mi
11:20 pm28 °FClear.5 mph86%30.69 "Hg10 mi
10:50 pm28 °FClear.7 mph86%30.69 "Hg10 mi
10:20 pm28 °FClear.7 mph80%30.69 "Hg10 mi
9:50 pm28 °FClear.6 mph86%30.69 "Hg10 mi
9:20 pm28 °FClear.5 mph86%30.69 "Hg10 mi
8:50 pm28 °FClear.5 mph86%30.72 "Hg10 mi
8:20 pm28 °FClear.5 mph86%30.72 "Hg10 mi
7:50 pm28 °FClear.3 mph86%30.69 "Hg10 mi
7:20 pm28 °FClear.3 mph86%30.69 "Hg10 mi
6:50 pm28 °FClear.3 mph86%30.72 "Hg10 mi
6:20 pm28 °FClear.3 mph86%30.69 "Hg10 mi
5:50 pm27 °FClear.3 mph93%30.72 "Hg10 mi
5:20 pm28 °FClear.3 mph86%30.72 "Hg10 mi
4:50 pm30 °FClear.3 mph80%30.72 "Hg10 mi
4:20 pm30 °FSunny.3 mph80%30.72 "Hg10 mi
3:50 pm30 °FSunny.2 mph80%30.72 "Hg10 mi
3:20 pm30 °FSunny.3 mph80%30.72 "Hg10 mi
2:50 pm30 °FSunny.2 mph75%30.72 "Hg10 mi
2:20 pm30 °FSunny.1 mph75%30.72 "Hg10 mi
Weather by CustomWeather, © 2017

See weather overviewHow to use our weather pages